Location: Drocourt
(49.0571°N, 1.7669°E)
Time: 18:07:46
(UTC+00:00)

CZ-4B R/B - Pass Details

Date: 09 February 2023
Orbit: 809 x 881 km, 99.0° (Epoch: 25 March)

Event Time Altitude Azimuth Distance (km) Brightness Sun altitude
Rises 18:09:01 0° 147° (SSE) 3,354 6.1 -11.3°
Reaches altitude 10° 18:11:23 10° 142° (SE) 2,435 5.3 -11.6°
Maximum altitude 18:16:36 52° 67° (ENE) 1,038 3.3 -12.5°
Drops below altitude 10° 18:21:58 10° 353° (N) 2,498 5.7 -13.4°
Sets 18:24:25 0° 349° (NNW) 3,449 6.4 -13.8°
